Location: Ch�ze
(42.9000°N, 0.0333°W)
Time: 19:23:55
(UTC+00:00)

CZ-4 R/B - Pass Details

Date: 24 January 2021
Orbit: 531 x 598 km, 97.7° (Epoch: 07 March)

Event Time Altitude Azimuth Distance (km) Brightness Sun altitude
Rises 17:51:23 0° 141° (SE) 2,788 4.7 -9.1°
Reaches altitude 10° 17:53:44 10° 130° (SE) 1,882 3.7 -9.5°
Maximum altitude 17:57:16 29° 70° (ENE) 1,057 2.2 -10.2°
Drops below altitude 10° 18:00:45 10° 9° (N) 1,859 3.8 -10.8°
Sets 18:03:04 0° 359° (N) 2,747 4.7 -11.2°
